Location: Muenchen
(48.1800°N, 11.5800°E)
Time: 00:31:56
(UTC+02:00)

Cosmos 1455 - Visible Passes

Search period start: 28 April 2017 00:00
Search period end: 08 May 2017 00:00
Orbit: 502 x 528 km, 82.5° (Epoch: 26 April)

Date Brightness Start Highest point End Pass type
(mag) Time Alt. Az. Time Alt. Az. Time Alt. Az.
28 Apr 6.0 21:53:48 10° WNW 21:54:14 10° WNW 21:54:38 10° WNW visible
29 Apr 5.7 21:37:20 10° W 21:38:52 12° WNW 21:40:24 10° NW visible
30 Apr 5.6 21:21:26 10° W 21:23:31 14° WNW 21:25:38 10° NNW visible
01 May 5.4 21:05:41 10° WSW 21:08:11 17° WNW 21:10:41 10° NNW visible
